Weather Roundup
Issued by NWS

Home | Current Version | Previous Version | Text Only | Print | Product List | Glossary On
Versions: 1 2 3 4 5 6 7 8 9 10 11 12 13 14 15 16 17 18 19 20 21 22 23 24 25 26 27 28 29 30 31 32 33 34 35 36 37 38 39 40 41 42 43 44 45 46 47 48 49 50
820
NZUS93 KARX 191310
HRRWXR

CURRENT HOURLY OBSERVATIONS ACROSS
MUCH OF THE UPPER MISSISSIPPI VALLEY
NATIONAL WEATHER SERVICE LA CROSSE WI
700 AM CST FRI JAN 19 2018


...SOUTHEAST MINNESOTA...


CITY           SKY/WX    TMP DP  RH WIND       PRES   REMARKS
ROCHESTER      FAIR      26  22  84 S16       29.66F WCI  14
ROCHESTER/MAYO FAIR      29  23  77 S8        29.67F WCI  21
WINONA         FAIR      30  25  80 SE7       29.70F WCI  23
AUSTIN         FAIR      25  19  80 S8        29.67F WCI  16
ALBERT LEA     FAIR      28  21  74 S6        29.66F WCI  22
DODGE CENTER   FAIR      25  21  86 S14       29.65F WCI  13
PRESTON        FAIR      26  21  79 S12       29.69F WCI  16
OWATONNA       FAIR      27  23  86 SE10      29.63F WCI  17
FARIBAULT      FAIR      28  25  86 S8        29.64F WCI  20
$$

...ELSEWHERE IN MINNESOTA...


CITY           SKY/WX    TMP DP  RH WIND       PRES   REMARKS
MINNEAPOLIS    CLOUDY    28  25  88 SE7       29.62F WCI  21
INTNL FALLS    FAIR      31  24  75 SW8       29.40R WCI  23
DULUTH         FAIR      28  24  85 W12       29.49S WCI  18
RED WING       FAIR      27  19  74 SE6       29.66F WCI  20
REDWOOD FALLS  CLOUDY    29  26  89 S7        29.57F WCI  22
MANKATO        FAIR      26  23  88 S9        29.62F WCI  17
WORTHINGTON    CLOUDY    31  26  82 S13       29.60F WCI  21
FAIRMONT       CLOUDY    26  23  88 S12       29.64F WCI  16
$$

...SOUTHWEST WISCONSIN...


CITY           SKY/WX    TMP DP  RH WIND       PRES   REMARKS
LA CROSSE      FAIR      27  21  78 S9        29.73F WCI  18
PRAIRIE DU CHI FAIR      29  20  69 CALM      29.79F
BOSCOBEL       FAIR      22  18  85 CALM      29.80S
LONE ROCK      FAIR      24  19  81 S3        29.81F
PLATTEVILLE    FAIR      24  21  88 S12       29.81F WCI  13
FORT MC COY    FAIR      28  22  80 S5        29.74F WCI  22
CAMP DOUGLAS   MOCLDY    27  21  80 S3        29.73F
MAUSTON-NEW LI FAIR      28  22  75 S5        29.73S WCI  23
VIROQUA        FAIR      26  23  89 S7        29.74F WCI  18
WIS DELLS      FAIR      28  21  75 SW14      29.76S WCI  17
$$

...ELSEWHERE IN WISCONSIN...


CITY           SKY/WX    TMP DP  RH WIND       PRES   REMARKS
MILWAUKEE      FAIR      28  20  71 SW8       29.83S WCI  20
MADISON        MOCLDY    25  19  78 S8        29.81S WCI  16
GREEN BAY      FAIR      22  16  78 SW7       29.74F WCI  13
EAU CLAIRE     FAIR      24  20  84 S6        29.65F WCI  17
BLACK RVR FLS  FAIR      25  21  86 S3        29.70F
MEDFORD        FAIR      20  18  88 S7        29.64F WCI  12
WAUSAU         FAIR      22  19  89 S5        29.67F WCI  16
WIS RAPIDS     FAIR      26  18  71 SW9       29.72F WCI  17
MARSHFIELD     FAIR      23  19  85 SW6       29.67F WCI  16
RICE LAKE      FAIR      24  22  94 SE6       29.63F WCI  17
$$

...NORTHEAST IOWA...


CITY           SKY/WX    TMP DP  RH WIND       PRES   REMARKS
WATERLOO       FAIR      25  20  81 S6        29.78S WCI  18
DUBUQUE        FAIR      24  18  77 S13       29.80F WCI  12
DECORAH        FAIR      27  23  86 SW8       29.73F WCI  18
MASON CITY     CLOUDY    27  21  78 S10       29.71F WCI  17
CHARLES CITY   CLOUDY    23  25 100 S9        29.74F WCI  13
OELWEIN        FAIR      23  23 100 S12       29.78S WCI  12
$$

...ELSEWHERE IN IOWA...


CITY           SKY/WX    TMP DP  RH WIND       PRES   REMARKS
DES MOINES     CLOUDY    34  23  64 SW10      29.80F WCI  26
IOWA CITY      FAIR      28  19  69 S6        29.88S WCI  22
FORT DODGE     CLOUDY    28  23  81 S8        29.73R WCI  20
MARSHALLTOWN   CLOUDY    30  23  75 S10       29.78S WCI  21
CEDAR RAPIDS   FAIR      27  20  75 S8        29.83R WCI  19
$$

...NORTHERN ILLINOIS...


CITY           SKY/WX    TMP DP  RH WIND       PRES   REMARKS
CHICAGO-OHARE  FAIR      29  19  66 SW16      29.89S WCI  17
CHICAGO-MIDWAY FAIR      30  19  63 SW14      29.92R WCI  19
MOLINE         FAIR      30  20  66 SW10      29.88F WCI  21
ROCKFORD       FAIR      27  19  72 S8        29.89S WCI  19
PEORIA         FAIR      26  17  68 S10       29.97F WCI  16
$$

NOTE: "FAIR" INDICATES FEW OR NO CLOUDS BELOW 12,000 FEET WITH NO
SIGNIFICANT WEATHER AND/OR OBSTRUCTIONS TO VISIBILITY. WIND
SPEEDS ARE IN MILES-PER-HOUR.




USA.gov is the U.S. government's official web portal to all federal, state and local government web resources and services.